Terminal Aerodrome Forecast
Issued by NWS Denver/Boulder, CO

Home | Current Version | Previous Version | Text Only | Print | Product List | Glossary On
Versions: 1 2 3 4 5 6 7 8 9 10 11 12 13 14 15 16 17 18 19 20 21 22 23 24 25 26 27 28 29 30 31 32 33 34 35 36 37 38 39 40 41 42 43 44 45 46 47 48 49 50
000
FTUS45 KBOU 101730
TAFDEN
TAF
KDEN 101730Z 1018/1124 09008KT P6SM FEW100 FEW200
     FM101900 11008KT P6SM FEW120 FEW200
     FM102100 14011KT P6SM VCTS SCT100CB BKN150
     FM110000 30012KT P6SM VCTS SCT100CB BKN150
     FM110300 27010KT P6SM FEW080 SCT120 BKN200
     FM110600 22010KT P6SM SCT120 SCT200
     FM111500 36008KT P6SM SCT200
     FM112100 05009KT P6SM VCTS SCT070CB BKN120
      TEMPO 1121/1124 VRB15G30KT -TSRA BKN060CB=

USA.gov is the U.S. government's official web portal to all federal, state and local government web resources and services.